Regional Weather Roundup
Issued by NWS Charleston, SC

Current Version | Previous Version | Text Only | Print | Product List | Glossary On
Versions: 1 2 3 4 5 6 7 8 9 10 11 12 13 14 15 16 17 18 19 20 21 22 23 24 25 26 27 28 29 30 31 32 33 34 35 36 37 38 39 40 41 42 43 44 45 46 47 48 49 50
000 ASUS42 KCHS 191212 RWRCHS REGIONAL WEATHER ROUNDUP NATIONAL WEATHER SERVICE CHARLESTON SC 800 AM EDT SAT AUG 19 2017 NOTE: "FAIR" INDICATES FEW OR NO CLOUDS BELOW 12,000 FEET WITH NO SIGNIFICANT WEATHER AND/OR OBSTRUCTIONS TO VISIBILITY. NOT ALL STATIONS ARE QUALITY CONTROLLED. USE DATA WITH CAUTION... ESPECIALLY DEWPOINT OBSERVATIONS. SCZ027-030-031-034>040-042>050-191300- ...SOUTHEAST SOUTH CAROLINA... CITY SKY/WX TMP DP RH WIND PRES REMARKS N CHARLESTON SUNNY 81 75 82 W6 29.94S 6HR MIN TEMP: 78; 6HR MAX TEMP: 82; WATERFRONT PRK N/A 81 76 85 VRB3 29.78S JOHNS ISLAND FAIR 82 77 83 CALM 29.95R HX 91 PINOPOLIS N/A 81 75 83 CALM 29.87R MONCKS CORNER FAIR 77 73 88 S3 29.95R SUMMERVILLE FAIR 77 73 88 CALM 29.95S BEAUFORT MCAS SUNNY 79 77 94 SW6 29.95R 6HR MIN TEMP: 77; 6HR MAX TEMP: 82; BEAUFORT ARPT FAIR 81 75 83 W7 29.95S HAZE HILTON HEAD IS SUNNY 81 77 89 CALM 29.96S WALTERBORO SUNNY 77 73 88 SW3 29.96R ALLENDALE NOT AVBL ...SOUTHERN MIDLANDS AND PEE DEE... CITY SKY/WX TMP DP RH WIND PRES REMARKS GEORGETOWN FAIR 79 79 100 SW3 29.95S KINGSTREE FAIR 79 77 94 CALM 29.93S ORANGEBURG SUNNY 77 75 93 W5 29.95R 6HR MIN TEMP: 75; 6HR MAX TEMP: 79; BARNWELL FAIR 79 75 89 CALM 29.95S AIKEN FAIR 73 70 88 W3 29.99S MANNING FAIR 79 77 94 MISG 29.94S COLUMBIA SUNNY 77 73 87 SW3 29.94R 6HR MIN TEMP: 76; 6HR MAX TEMP: 80; SUMTER SUNNY 80 74 83 SW5 29.91S 6HR MIN TEMP: 77; 6HR MAX TEMP: 81; 6HR PCP: TRACE; FLORENCE MOSUNNY 79 78 97 SW6 29.94R 6HR MIN TEMP: 77; 6HR MAX TEMP: 81; 6HR PCP: TRACE; MYRTLE BEACH SUNNY 82 75 78 SW8 29.95R N MYRTLE BEACH SUNNY 83 76 79 SW8 29.94R HX 91 6HR MIN TEMP: 81; 6HR MAX TEMP: 83; $$ GAZ063-065-086>088-099>101-113>116-118-119-134>141-150-191300- ...SOUTHEAST GEORGIA... CITY SKY/WX TMP DP RH WIND PRES REMARKS SAVANNAH ARPT PTSUNNY 78 75 90 SW5 29.96S 6HR MIN TEMP: 76; 6HR MAX TEMP: 80; HUNTER AAF SUNNY 77 75 94 SW3 29.94S FORT STEWART SUNNY 77 73 90 SW3 29.94S 6HR MIN TEMP: 76; 6HR MAX TEMP: 78; STATESBORO SUNNY 78 74 88 CALM 29.96S SYLVANIA SUNNY 77 76 98 CALM 29.97S CLAXTON FAIR 78 76 95 CALM 29.96S ...CSRA...CENTRAL AND FAR SOUTHEAST GEORGIA... CITY SKY/WX TMP DP RH WIND PRES REMARKS THOMSON SUNNY 73 69 86 CALM 30.02S AUGUSTA-BUSH SUNNY 77 73 87 CALM 29.95R 6HR MIN TEMP: 74; 6HR MAX TEMP: 80; AUGUSTA-DANIEL SUNNY 78 67 68 NW6 29.96S SWAINSBORO FAIR 73 73 100 NW5 29.98S VIDALIA SUNNY 79 75 89 W3 29.98R EASTMAN FAIR 73 73 98 CALM 30.01R FOG HAZLEHURST PTSUNNY 77 75 94 CALM 29.97R FOG ALMA SUNNY 76 74 93 S3 29.97R 6HR MIN TEMP: 75; 6HR MAX TEMP: 77; WAYCROSS FOG 75 72 90 SW5 29.98R VSB 1 JESUP FAIR 75 72 88 CALM 29.98R BAXLEY FAIR 73 73 100 CALM 29.97R BRUNSWICK PTSUNNY 77 72 83 SW5 29.98R SAINT SIMONS MOSUNNY 79 77 94 SW6 29.97R 6HR MIN TEMP: 78; 6HR MAX TEMP: 79; $$ SCZ027-028-034-036>038-045-046-048>050-GAZ119-141-191300- ...LAKE AND SUPPLEMENTAL COASTAL OBSERVATIONS... STATION/POSITION TIME TEMP WIND PRES WAVE SWELL AIR SEA DIR/SP/G HT/PER HT/PER/DIR (UTC) (F) (DEG/KT/KT) (MB) (FT/S) (FT/S/D) WINYAH BAY 1045 81 230/ 6 1014.0 LAKE MURRAY 1120 78 250/ 4/ 5 1012.9 ACE BASIN NERRS 1045 78 CALM 1014.0 FORT PULASKI 1136 79 86 260/ 4/ 6 1014.7S SAPELO ISLAND 1100 78 250/ 2 1015.0 $$ ANZ835-935-AMZ111-154-330-350-352-354-370-450-454-472-191300- ...C-MAN AND BUOY OBSERVATIONS... STATION/POSITION TIME TEMP WIND PRES WAVE SWELL AIR SEA DIR/SP/G HT/PER HT/PER/DIR (UTC) (F) (DEG/KT/KT) (MB) (FT/S) (FT/S/D) BUOY 41004 1150 83 84 220/ 12/ 16 1013.8R 4/ 5 2/130/ 8 BUOY 41008 1150 82 85 250/ 8/ 10 1014.2R 2/ 8 2/130/ 8 FOLLY BEACH CMAN 1100 82 240/ 6/ 8 1014.5R CAPERS NEARSHORE 1108 82 85 240/ 14/ 17 1013.5R FRIPP NEARSHORE 1108 82 230/ 8/ 12 1013.8R STATION/POSITION TIME TEMP WIND PRES WAVE SWELL AIR SEA DIR/SP/G HT/PER HT/PER/DIR (UTC) (F) (DEG/KT/KT) (MB) (FT/S) (FT/S/D) 5E ST. MARYS GA 1130 84 N/A 1/ 7 FRYING PAN BUOY 1150 84 84 230/ 14/ 17 1013.9R 4/ 6 2/140/ 8 BUOY 41025 1150 84 84 240/ 17/ 21 1013.0R 5/ 6 2/160/ 8 CAPE LOOKOUT NC 1100 83 230/ 11/ 16 1012.9R BUOY 41002 1050 83 84 220/ 12/ 14 1016.1 4/ 5 3/220/ 5 BUOY 41010 1150 84 85 160/ 8/ 10 1015.5R 2/ 8 2/120/ 8 ST AUGUSTINE FL 1200 75 80 190/ 5/ 6 1015.8R $$

USA.gov is the U.S. government's official web portal to all federal, state and local government web resources and services.